Location: Castrojimeno
(41.3966°N, 3.8473°W)
Time: 11:43:09
(UTC+00:00)

SL-16 R/B - Pass Details

Date: 15 May 2026
Orbit: 841 x 844 km, 71.0° (Epoch: 6 June)

Event Time Altitude Azimuth Distance (km) Brightness Sun altitude
Rises 22:50:17 0° 320° (NW) 3,410 6.5 -26.7°
Reaches altitude 10° 22:53:27 10° 302° (WNW) 2,469 5.3 -26.9°
Maximum altitude 22:57:11 18° 261° (W) 1,938 4.1 -27.1°
Enters shadow 22:58:26 17° 244° (WSW) 2,001 4.1 -27.2°
